�������l�o���
Date,Time,MP-1(��Sv/h),MP-2(��Sv/h),MP-3(��Sv/h),MP-4(��Sv/h),MP-5(��Sv/h),MP-6(��Sv/h),MP-7(��Sv/h),����,����(m/s),���J
2018/11/10,00:00,0.299,0.185,0.294,0.283,0.274,0.147,0.091,��,4.7,��
2018/11/10,00:10,0.297,0.184,0.294,0.282,0.276,0.148,0.091,��,5.6,��
2018/11/10,00:20,0.300,0.186,0.294,0.283,0.274,0.148,0.091,��,5.1,��
2018/11/10,00:30,0.297,0.184,0.296,0.283,0.276,0.148,0.092,��,4.4,��
2018/11/10,00:40,0.299,0.186,0.294,0.283,0.272,0.146,0.092,��쓌,4.3,��
2018/11/10,00:50,0.297,0.184,0.295,0.283,0.276,0.148,0.091,��쓌,3.6,��
2018/11/10,01:00,0.300,0.185,0.293,0.283,0.274,0.147,0.091,��,4.4,��
2018/11/10,01:10,0.297,0.185,0.296,0.283,0.275,0.147,0.091,��쓌,4.9,��
2018/11/10,01:20,0.299,0.185,0.293,0.282,0.273,0.147,0.092,��,4.1,��
2018/11/10,01:30,0.298,0.185,0.295,0.284,0.276,0.148,0.092,��,2.3,��
2018/11/10,01:40,0.299,0.184,0.294,0.282,0.274,0.148,0.091,��쐼,1.4,��
2018/11/10,01:50,0.298,0.186,0.297,0.283,0.276,0.148,0.092,���쐼,1.5,��
2018/11/10,02:00,0.298,0.185,0.295,0.283,0.275,0.147,0.091,��,0.7,��
2018/11/10,02:10,0.296,0.187,0.296,0.284,0.276,0.149,0.091,��,1.2,��
2018/11/10,02:20,0.300,0.185,0.296,0.282,0.273,0.147,0.092,��,1.8,��
2018/11/10,02:30,0.298,0.185,0.296,0.284,0.277,0.148,0.092,���쐼,3.3,��
2018/11/10,02:40,0.300,0.184,0.296,0.283,0.274,0.147,0.091,��,2.0,��
2018/11/10,02:50,0.299,0.184,0.294,0.284,0.277,0.148,0.092,���쐼,1.9,��
2018/11/10,03:00,0.300,0.185,0.296,0.284,0.275,0.148,0.092,��,1.5,��
2018/11/10,03:10,0.299,0.184,0.296,0.284,0.276,0.148,0.091,-,CALM,��
2018/11/10,03:20,0.300,0.185,0.296,0.285,0.276,0.148,0.092,��,1.2,��
2018/11/10,03:30,0.300,0.185,0.295,0.283,0.275,0.148,0.092,��쐼,1.4,��
2018/11/10,03:40,0.299,0.184,0.296,0.286,0.276,0.149,0.092,���쐼,0.6,��
2018/11/10,03:50,0.299,0.185,0.294,0.283,0.274,0.147,0.090,-,CALM,��
2018/11/10,04:00,0.299,0.186,0.296,0.284,0.276,0.148,0.091,-,CALM,��
2018/11/10,04:10,0.300,0.187,0.296,0.284,0.274,0.148,0.092,�k�k��,0.9,��
2018/11/10,04:20,0.299,0.185,0.297,0.284,0.276,0.148,0.091,-,CALM,��
2018/11/10,04:30,0.300,0.186,0.296,0.284,0.274,0.148,0.092,-,CALM,��
2018/11/10,04:40,0.297,0.185,0.295,0.284,0.276,0.148,0.091,�k�k��,1.3,��
2018/11/10,04:50,0.300,0.185,0.296,0.284,0.273,0.148,0.092,�k�k��,1.9,��
2018/11/10,05:00,0.299,0.185,0.295,0.285,0.276,0.149,0.092,�k,1.6,��
2018/11/10,05:10,0.300,0.186,0.294,0.283,0.274,0.148,0.092,�k�k��,2.2,��
2018/11/10,05:20,0.298,0.187,0.296,0.285,0.277,0.148,0.092,�k�k��,2.6,��
2018/11/10,05:30,0.300,0.184,0.297,0.284,0.273,0.149,0.092,�k��,3.3,��
2018/11/10,05:40,0.299,0.186,0.295,0.285,0.276,0.148,0.092,�k�k��,3.0,��
2018/11/10,05:50,0.300,0.185,0.296,0.285,0.276,0.148,0.091,�k�k��,2.0,��
2018/11/10,06:00,0.299,0.185,0.297,0.284,0.276,0.148,0.092,�k,2.2,��
2018/11/10,06:10,0.300,0.185,0.297,0.285,0.275,0.149,0.092,�k�k��,2.9,��
2018/11/10,06:20,0.297,0.186,0.297,0.284,0.275,0.149,0.092,�k�k��,3.0,��
2018/11/10,06:30,0.301,0.185,0.297,0.285,0.276,0.148,0.092,�k�k��,3.6,��
2018/11/10,06:40,0.299,0.185,0.296,0.283,0.276,0.148,0.092,�k��,2.2,��
2018/11/10,06:50,0.300,0.185,0.296,0.285,0.275,0.149,0.092,��,2.2,��
2018/11/10,07:00,0.298,0.186,0.296,0.284,0.275,0.148,0.092,���k��,2.2,��
2018/11/10,07:10,0.300,0.186,0.299,0.285,0.276,0.148,0.092,�k��,1.8,��
2018/11/10,07:20,0.300,0.185,0.295,0.284,0.274,0.149,0.092,�k�k��,0.6,��
2018/11/10,07:30,0.299,0.185,0.297,0.285,0.278,0.148,0.092,��,0.6,��
2018/11/10,07:40,0.299,0.186,0.296,0.285,0.274,0.149,0.092,-,CALM,��
2018/11/10,07:50,0.300,0.186,0.299,0.284,0.277,0.149,0.092,��,0.7,�L
2018/11/10,08:00,0.301,0.186,0.296,0.285,0.275,0.149,0.093,-,CALM,�L
2018/11/10,08:10,0.300,0.186,0.297,0.286,0.278,0.149,0.093,-,CALM,��
2018/11/10,08:20,0.300,0.187,0.296,0.285,0.275,0.149,0.094,�k,1.9,�L
2018/11/10,08:30,0.300,0.186,0.299,0.287,0.279,0.149,0.092,�k�k��,2.8,��
2018/11/10,08:40,0.301,0.187,0.296,0.286,0.277,0.150,0.093,�k�k��,2.9,�L
2018/11/10,08:50,0.301,0.188,0.299,0.284,0.277,0.149,0.092,�k,4.4,�L
2018/11/10,09:00,0.302,0.188,0.297,0.287,0.277,0.150,0.093,�k,5.0,��
2018/11/10,09:10,0.300,0.186,0.299,0.283,0.275,0.150,0.092,�k,4.2,��
2018/11/10,09:20,0.302,0.188,0.297,0.287,0.279,0.149,0.093,�k,5.0,��
2018/11/10,09:30,0.300,0.187,0.298,0.284,0.275,0.149,0.094,�k,5.5,��
2018/11/10,09:40,0.302,0.187,0.297,0.287,0.277,0.149,0.092,�k,6.9,��
2018/11/10,09:50,0.301,0.186,0.297,0.284,0.275,0.150,0.093,�k,6.2,�L
2018/11/10,10:00,0.302,0.188,0.296,0.285,0.278,0.149,0.092,�k,6.2,��
2018/11/10,10:10,0.302,0.186,0.297,0.285,0.277,0.149,0.092,�k,5.3,��
2018/11/10,10:20,0.301,0.186,0.298,0.286,0.276,0.150,0.092,�k,5.2,��
2018/11/10,10:30,0.303,0.185,0.296,0.286,0.277,0.149,0.092,�k,4.2,�L
2018/11/10,10:40,0.301,0.186,0.297,0.283,0.276,0.149,0.092,�k,4.5,��
2018/11/10,10:50,0.302,0.186,0.296,0.286,0.279,0.149,0.092,�k,4.7,��
2018/11/10,11:00,0.299,0.187,0.298,0.284,0.276,0.150,0.093,�k�k��,3.5,��
2018/11/10,11:10,0.301,0.187,0.296,0.288,0.276,0.150,0.092,�k,3.8,��
2018/11/10,11:20,0.301,0.187,0.297,0.286,0.276,0.148,0.091,�k,3.0,��
2018/11/10,11:30,0.302,0.186,0.296,0.286,0.276,0.149,0.093,�k,3.5,��
2018/11/10,11:40,0.303,0.187,0.298,0.286,0.278,0.149,0.092,�k�k��,4.5,��
2018/11/10,11:50,0.299,0.186,0.296,0.284,0.274,0.148,0.092,�k�k��,6.0,��
2018/11/10,12:00,0.303,0.186,0.298,0.286,0.278,0.149,0.092,�k,5.5,��
2018/11/10,12:10,0.300,0.188,0.296,0.284,0.276,0.149,0.092,�k,4.8,��
2018/11/10,12:20,0.301,0.185,0.295,0.287,0.276,0.150,0.091,�k,5.0,��
2018/11/10,12:30,0.299,0.186,0.299,0.283,0.278,0.149,0.092,�k,6.0,��
2018/11/10,12:40,0.302,0.185,0.295,0.285,0.274,0.149,0.092,�k,4.9,��
2018/11/10,12:50,0.301,0.186,0.298,0.287,0.277,0.149,0.092,�k�k��,5.2,��
2018/11/10,13:00,0.300,0.186,0.296,0.283,0.277,0.149,0.092,�k�k��,5.9,��
2018/11/10,13:10,0.303,0.185,0.294,0.286,0.274,0.150,0.092,�k�k��,7.6,��
2018/11/10,13:20,0.300,0.186,0.298,0.286,0.277,0.150,0.092,�k�k��,7.8,��
2018/11/10,13:30,0.302,0.185,0.296,0.284,0.277,0.149,0.091,�k,6.7,��
2018/11/10,13:40,0.300,0.188,0.299,0.286,0.274,0.150,0.092,�k,5.4,��
2018/11/10,13:50,0.302,0.185,0.297,0.285,0.278,0.149,0.093,�k�k��,6.0,��
2018/11/10,14:00,0.300,0.188,0.298,0.285,0.275,0.150,0.092,�k,6.2,��
2018/11/10,14:10,0.303,0.186,0.297,0.286,0.277,0.150,0.093,�k,6.3,��
2018/11/10,14:20,0.301,0.187,0.295,0.285,0.276,0.149,0.092,�k�k��,5.2,��
2018/11/10,14:30,0.300,0.186,0.298,0.286,0.274,0.149,0.091,�k�k��,6.5,��
2018/11/10,14:40,0.301,0.185,0.297,0.283,0.276,0.148,0.091,�k�k��,7.6,��
2018/11/10,14:50,0.300,0.186,0.298,0.288,0.274,0.148,0.091,�k,6.5,��
2018/11/10,15:00,0.303,0.186,0.296,0.285,0.278,0.150,0.091,�k,6.6,��
2018/11/10,15:10,0.300,0.187,0.299,0.286,0.275,0.148,0.092,�k�k��,5.6,��
2018/11/10,15:20,0.302,0.186,0.295,0.285,0.277,0.148,0.092,�k�k��,4.8,��
2018/11/10,15:30,0.301,0.187,0.298,0.286,0.277,0.149,0.092,�k�k��,5.4,��
2018/11/10,15:40,0.303,0.185,0.296,0.286,0.276,0.149,0.091,�k�k��,3.3,��
2018/11/10,15:50,0.302,0.187,0.298,0.285,0.277,0.149,0.091,�k,6.7,��
2018/11/10,16:00,0.303,0.186,0.298,0.288,0.276,0.150,0.092,�k�k��,5.1,��
2018/11/10,16:10,0.302,0.187,0.299,0.286,0.278,0.149,0.092,�k�k��,4.1,��
2018/11/10,16:20,0.303,0.186,0.298,0.287,0.278,0.149,0.092,�k,5.7,��
2018/11/10,16:30,0.302,0.187,0.299,0.286,0.278,0.149,0.092,�k�k��,6.0,��
2018/11/10,16:40,0.303,0.187,0.297,0.287,0.277,0.150,0.092,�k,7.3,��
2018/11/10,16:50,0.303,0.186,0.299,0.286,0.277,0.149,0.091,�k�k��,8.4,��
2018/11/10,17:00,0.304,0.186,0.297,0.284,0.278,0.149,0.092,�k�k��,9.0,��
2018/11/10,17:10,0.303,0.187,0.298,0.288,0.276,0.149,0.092,�k�k��,8.6,��
2018/11/10,17:20,0.304,0.187,0.298,0.286,0.278,0.150,0.091,�k�k��,7.7,��
2018/11/10,17:30,0.303,0.187,0.298,0.288,0.277,0.149,0.092,�k,6.2,��
2018/11/10,17:40,0.305,0.186,0.298,0.286,0.277,0.148,0.092,�k,6.9,��
2018/11/10,17:50,0.304,0.188,0.298,0.287,0.277,0.149,0.092,�k,6.3,��
2018/11/10,18:00,0.304,0.187,0.300,0.287,0.278,0.149,0.092,�k,7.4,��
2018/11/10,18:10,0.303,0.188,0.298,0.287,0.278,0.150,0.092,�k�k��,7.2,��
2018/11/10,18:20,0.304,0.187,0.300,0.289,0.277,0.150,0.092,�k�k��,6.4,��
2018/11/10,18:30,0.304,0.187,0.299,0.286,0.279,0.150,0.092,�k�k��,3.6,��
2018/11/10,18:40,0.302,0.188,0.298,0.286,0.277,0.150,0.092,�k�k��,3.7,��
2018/11/10,18:50,0.305,0.187,0.300,0.287,0.278,0.148,0.093,�k�k��,5.3,��
2018/11/10,19:00,0.303,0.187,0.299,0.285,0.277,0.149,0.092,�k�k��,4.9,��
2018/11/10,19:10,0.303,0.187,0.299,0.287,0.277,0.150,0.092,�k,5.8,��
2018/11/10,19:20,0.303,0.186,0.299,0.288,0.279,0.150,0.092,�k�k��,5.6,��
2018/11/10,19:30,0.302,0.187,0.299,0.287,0.275,0.150,0.092,�k�k��,6.2,��
2018/11/10,19:40,0.305,0.187,0.299,0.287,0.278,0.150,0.092,�k�k��,6.2,��
2018/11/10,19:50,0.303,0.186,0.299,0.286,0.278,0.150,0.092,�k,6.2,��
2018/11/10,20:00,0.304,0.187,0.300,0.287,0.276,0.150,0.092,�k,6.5,��
2018/11/10,20:10,0.305,0.188,0.299,0.287,0.279,0.150,0.093,�k,6.2,��
2018/11/10,20:20,0.303,0.187,0.298,0.288,0.277,0.150,0.092,�k,7.1,��
2018/11/10,20:30,0.304,0.188,0.299,0.287,0.278,0.150,0.092,�k�k��,6.5,��
2018/11/10,20:40,0.304,0.186,0.300,0.288,0.278,0.151,0.092,�k�k��,6.8,��
2018/11/10,20:50,0.303,0.188,0.299,0.287,0.277,0.150,0.092,�k�k��,6.1,��
2018/11/10,21:00,0.304,0.188,0.300,0.287,0.278,0.150,0.092,�k�k��,7.0,��
2018/11/10,21:10,0.303,0.186,0.300,0.287,0.278,0.151,0.092,�k�k��,8.1,��
2018/11/10,21:20,0.305,0.188,0.299,0.288,0.278,0.150,0.092,�k��,8.1,��
2018/11/10,21:30,0.303,0.188,0.297,0.288,0.279,0.151,0.093,�k�k��,9.2,��
2018/11/10,21:40,0.303,0.187,0.300,0.289,0.276,0.151,0.092,�k�k��,10.7,��
2018/11/10,21:50,0.305,0.188,0.299,0.286,0.276,0.150,0.093,�k�k��,10.9,��
2018/11/10,22:00,0.303,0.187,0.300,0.288,0.279,0.150,0.092,�k��,9.8,��
2018/11/10,22:10,0.304,0.186,0.299,0.288,0.278,0.150,0.092,�k��,7.3,��
2018/11/10,22:20,0.305,0.187,0.301,0.287,0.277,0.151,0.092,�k��,6.6,��
2018/11/10,22:30,0.304,0.187,0.300,0.289,0.277,0.150,0.092,�k��,6.3,��
2018/11/10,22:40,0.304,0.188,0.299,0.287,0.275,0.150,0.092,�k��,6.0,��
2018/11/10,22:50,0.305,0.189,0.301,0.287,0.279,0.150,0.093,�k�k��,7.9,��
2018/11/10,23:00,0.305,0.187,0.299,0.288,0.277,0.150,0.092,�k�k��,7.5,��
2018/11/10,23:10,0.305,0.187,0.299,0.286,0.278,0.151,0.091,�k��,7.6,��
2018/11/10,23:20,0.304,0.188,0.300,0.288,0.278,0.151,0.092,�k��,8.6,��
2018/11/10,23:30,0.305,0.188,0.301,0.288,0.276,0.150,0.092,�k��,8.1,��
2018/11/10,23:40,0.306,0.186,0.299,0.287,0.276,0.150,0.092,�k��,7.7,��
2018/11/10,23:50,0.305,0.188,0.301,0.288,0.278,0.150,0.092,�k��,6.2,��
